星链-6088 (STARLINK-6088 )

导读 | 豆包AI

STARLINK-6088是美国SpaceX公司星链(Starlink)项目的V1.0版本卫星,于2023年3月29日发射升空。作为星链卫星互联网组网的一部分,该卫星运行在近地轨道,近地点约482千米,远地点约484千米,轨道倾角43度,轨道周期约94.27分钟。它旨在为全球尤其是网络覆盖盲区提供高速低延迟互联网接入,助力缩小数字鸿沟,同时可支持军事、航空等领域通信服务。

Basic Information
目录编号:
56098
目录名称:
STARLINK-6088
国际标识:
2023-046F
轨道中心:
EARTH
卫星名称:
星链-6088
卫星全名:
星链-6088 (STARLINK-6088 )
卫星状态:
在轨 (已飞行1082 天)
发射日期:
2023-03-29 UTC
国别 :
美国 (US)
星等 :
--
Orbit Information
数据来源 国际轨道数据
星历时间: 2026-03-15T14:00:01+0800
14小时前
查看轨道信息
半长轴: 6906.939km
偏心率: 0.0000895
轨道倾角: 43.001°
近地点辐角 283.343°
升交点赤经 128.663°
平近点角 283.573°
近地点: 528.183km
远地点: 529.421km
周期: 95.211分钟
每日圈数: 15.124267
Detailed Information
固有亮度:
5
最大亮度:
2.5
卫星平台:
Starlink v1.5
覆盖范围:
全球
运营商:
太空探索技术公司
运营商所在国:
美国
制造商(研发单位):
太空探索技术公司
制造商所在国:
美国
使用方式:
暂无
Satellite Introduction
星链(Starlink)计划是由太空探索技术公司(SpaceX)提出的一个巨型低轨卫星互联网星座项目,计划在2019年至2024年间在太空搭建由约1.2万颗卫星组成的“星链”网络,其中1584颗将部署在地球上空550千米处的近地轨道,并从2020年开始工作。该卫星仍在工作。
2D Orbit Map
3D Orbit Map
Orbit Altitude Analysis Chart
Orbit Inclination Analysis Chart
Orbit Comprehensive Analysis Chart
View Comprehensive Chart